Antigo, WI

7:45 PM CDT on August 26, 2016 (GMT -0500)
Langlade County

Weather History for KAIG - October, 2011

Change the Weather History Date:

Sunday, October 30, 2011

  Actual Average Record
Temperature  
Mean Temperature 36 °F -  
Max Temperature 44 °F 50 °F 78 °F (1950)
Min Temperature 28 °F 30 °F 10 °F (1988)
Degree Days  
Heating Degree Days 29    
Moisture  
Dew Point 32 °F    
Average Humidity 86    
Maximum Humidity 100    
Minimum Humidity 57    
Precipitation  
Precipitation 0.07 in - - ()
Sea Level Pressure  
Sea Level Pressure 29.91 in    
Wind  
Wind Speed 6 mph (SE)    
Max Wind Speed 18 mph    
Max Gust Speed 23 mph    
Visibility 7 miles    
Events Rain    
Averages and records for this station are not official NWS values.
T = Trace of Precipitation, MM = Missing Value Source: NWS Daily Summary

Daily Weather History Graph

Daily Weather History Graph

Search for Another Location

Airport or City:

Trip Planner

Search our weather history database for the weather conditions in past years. The results will help you decide how hot, cold, wet, or windy it might be!

Date:

Astronomy

Oct. 30, 2011 Rise Set
Actual Time 7:32 AM CDT 5:47 PM CDT
Civil Twilight 7:01 AM CDT 6:17 PM CDT
Nautical Twilight 6:26 AM CDT 6:52 PM CDT
Astronomical Twilight 5:52 AM CDT 7:26 PM CDT
Moon 11:59 AM CDT (10/30) 9:08 PM CDT (10/30)
Length of Visible Light 11h 16m
Length of Day
10h 15m
Waxing Crescent, 20% of the Moon is Illuminated
Oct 30
Waxing Crescent
Nov 2
First Quarter
Nov 10
Full
Nov 18
Last Quarter
Nov 25
New

Hourly Weather History & Observations

Time (CDT) Temp. Windchill Dew Point Humidity Pressure Visibility Wind Dir Wind Speed Gust Speed Precip Events Conditions
12:15 AM 28.4 °F 24.6 °F 24.8 °F 86% 30.03 in 10.0 mi SE 3.5 mph - N/A   Clear
12:35 AM 28.4 °F 24.6 °F 24.8 °F 86% 30.03 in 10.0 mi SSE 3.5 mph - N/A   Clear
12:55 AM 30.2 °F 26.7 °F 24.8 °F 80% 30.03 in 10.0 mi SSE 3.5 mph - N/A   Clear
1:15 AM 30.2 °F 25.4 °F 26.6 °F 86% 30.03 in 10.0 mi SE 4.6 mph - N/A   Clear
1:35 AM 28.4 °F - 26.6 °F 93% 30.03 in 10.0 mi Calm Calm - N/A   Clear
1:55 AM 30.2 °F 25.4 °F 24.8 °F 80% 30.03 in 10.0 mi SE 4.6 mph - N/A   Clear
2:15 AM 30.2 °F - 26.6 °F 86% 30.03 in 10.0 mi Calm Calm - N/A   Clear
2:35 AM 30.2 °F - 26.6 °F 86% 30.02 in 10.0 mi Calm Calm - N/A   Clear
2:55 AM 30.2 °F - 26.6 °F 86% 30.01 in 10.0 mi Calm Calm - N/A   Clear
3:15 AM 30.2 °F 26.7 °F 24.8 °F 80% 30.01 in 10.0 mi SE 3.5 mph - N/A   Clear
3:35 AM 28.4 °F 23.3 °F 24.8 °F 86% 30.00 in 10.0 mi SE 4.6 mph - N/A   Clear
4:35 AM 30.2 °F 22.6 °F 24.8 °F 80% 29.99 in 10.0 mi SSE 8.1 mph - N/A   Scattered Clouds
5:15 AM 30.2 °F 23.4 °F 26.6 °F 86% 29.99 in 10.0 mi SSE 6.9 mph - N/A   Scattered Clouds
5:35 AM 30.2 °F 21.9 °F 26.6 °F 86% 29.99 in 10.0 mi SE 9.2 mph - N/A   Clear
6:15 AM 30.2 °F 22.6 °F 26.6 °F 86% 29.98 in 10.0 mi SE 8.1 mph - N/A   Clear
6:35 AM 30.2 °F 22.6 °F 26.6 °F 86% 29.98 in 10.0 mi SE 8.1 mph - N/A   Scattered Clouds
6:55 AM 30.2 °F 22.6 °F 26.6 °F 86% 29.98 in 10.0 mi SE 8.1 mph - N/A   Mostly Cloudy
7:15 AM 32.0 °F 25.6 °F 26.6 °F 80% 29.98 in 10.0 mi SSE 6.9 mph - N/A   Overcast
7:35 AM 32.0 °F 25.6 °F 26.6 °F 80% 29.98 in 10.0 mi SE 6.9 mph - N/A   Overcast
7:55 AM 32.0 °F 24.2 °F 26.6 °F 80% 29.98 in 10.0 mi SE 9.2 mph - N/A   Mostly Cloudy
8:15 AM 33.8 °F 25.3 °F 26.6 °F 75% 29.97 in 10.0 mi SE 11.5 mph - N/A   Mostly Cloudy
8:35 AM 33.8 °F 25.3 °F 26.6 °F 75% 29.97 in 7.0 mi SE 11.5 mph - N/A   Mostly Cloudy
8:55 AM 33.8 °F 25.8 °F 26.6 °F 75% 29.98 in 10.0 mi SSE 10.4 mph - N/A   Overcast
9:15 AM 35.6 °F 28.6 °F 28.4 °F 75% 29.97 in 7.0 mi SE 9.2 mph - N/A   Overcast
9:35 AM 35.6 °F 28.6 °F 28.4 °F 75% 29.97 in 10.0 mi SE 9.2 mph - N/A   Overcast
9:55 AM 35.6 °F 28.6 °F 30.2 °F 81% 29.97 in 5.0 mi SE 9.2 mph - N/A   Drizzle
10:15 AM 35.6 °F 25.5 °F 30.2 °F 81% 29.96 in 4.0 mi SE 17.3 mph 23.0 mph 0.01 in   Light Drizzle
10:35 AM 37.4 °F 28.2 °F 32.0 °F 81% 29.94 in 7.0 mi SE 16.1 mph - 0.01 in Rain Light Rain
11:15 AM 39.2 °F 31.6 °F 30.2 °F 70% 29.92 in 10.0 mi ESE 12.7 mph 19.6 mph N/A   Scattered Clouds
11:35 AM 39.2 °F 31.2 °F 30.2 °F 70% 29.91 in 10.0 mi SE 13.8 mph 19.6 mph N/A   Mostly Cloudy
11:55 AM 41.0 °F 33.1 °F 28.4 °F 61% 29.91 in 10.0 mi SE 15.0 mph 18.4 mph N/A   Overcast
12:15 PM 41.0 °F 32.8 °F 28.4 °F 61% 29.90 in 10.0 mi SE 16.1 mph 23.0 mph N/A   Overcast
12:35 PM 42.8 °F 34.8 °F 28.4 °F 57% 29.88 in 10.0 mi ESE 17.3 mph 23.0 mph N/A   Overcast
12:55 PM 42.8 °F 34.5 °F 30.2 °F 61% 29.87 in 10.0 mi ESE 18.4 mph 21.9 mph N/A   Mostly Cloudy
1:15 PM 44.6 °F 37.8 °F 32.0 °F 61% 29.86 in 10.0 mi SE 15.0 mph 20.7 mph N/A   Mostly Cloudy
1:55 PM 42.8 °F 35.4 °F 35.6 °F 76% 29.84 in 7.0 mi SE 15.0 mph - N/A   Mostly Cloudy
2:15 PM 41.0 °F 34.3 °F 37.4 °F 87% 29.84 in 7.0 mi SE 11.5 mph 18.4 mph N/A Rain Light Rain
2:35 PM 41.0 °F 35.2 °F 37.4 °F 87% 29.83 in 7.0 mi ESE 9.2 mph - 0.01 in   Drizzle
2:55 PM 41.0 °F 33.5 °F 37.4 °F 87% 29.82 in 5.0 mi ESE 13.8 mph - 0.01 in   Light Drizzle
3:15 PM 41.0 °F 33.1 °F 37.4 °F 87% 29.82 in 5.0 mi ESE 15.0 mph - 0.02 in   Drizzle
4:15 PM 39.2 °F 30.8 °F 39.2 °F 100% 29.82 in 7.0 mi SE 15.0 mph 19.6 mph 0.02 in Rain Rain
4:35 PM 39.2 °F 32.0 °F 37.4 °F 93% 29.82 in 7.0 mi SE 11.5 mph - 0.02 in   Light Drizzle
4:55 PM 39.2 °F 33.6 °F 37.4 °F 93% 29.82 in 7.0 mi SE 8.1 mph - 0.01 in   Light Drizzle
5:15 PM 37.4 °F 31.4 °F 37.4 °F 100% 29.82 in 5.0 mi SE 8.1 mph - 0.01 in   Overcast
5:35 PM 37.4 °F 31.4 °F 37.4 °F 100% 29.82 in 4.0 mi SE 8.1 mph - 0.01 in   Light Drizzle
5:55 PM 37.4 °F 32.1 °F 35.6 °F 93% 29.82 in 4.0 mi ESE 6.9 mph - N/A   Overcast
6:15 PM 37.4 °F 32.8 °F 37.4 °F 100% 29.83 in 5.0 mi ESE 5.8 mph - N/A Rain Light Rain
6:35 PM 37.4 °F 33.8 °F 37.4 °F 100% 29.83 in 4.0 mi SE 4.6 mph - N/A   Light Drizzle
6:55 PM 37.4 °F 33.8 °F 37.4 °F 100% 29.83 in 5.0 mi SE 4.6 mph - N/A   Light Drizzle
7:15 PM 37.4 °F 34.9 °F 37.4 °F 100% 29.83 in 3.0 mi ESE 3.5 mph - N/A   Overcast
7:35 PM 37.4 °F 34.9 °F 37.4 °F 100% 29.83 in 2.5 mi ESE 3.5 mph - N/A   Overcast
7:55 PM 37.4 °F 34.9 °F 37.4 °F 100% 29.83 in 2.5 mi ESE 3.5 mph - N/A   Light Drizzle
8:15 PM 37.4 °F - 37.4 °F 100% 29.83 in 2.0 mi Calm Calm - N/A   Light Drizzle
8:35 PM 37.4 °F - 37.4 °F 100% 29.83 in 2.0 mi Calm Calm - N/A   Light Drizzle
8:55 PM 37.4 °F - 37.4 °F 100% 29.83 in 2.0 mi Calm Calm - N/A   Overcast
9:15 PM 37.4 °F - 37.4 °F 100% 29.83 in 2.0 mi Calm Calm - N/A   Overcast
9:35 PM 37.4 °F - 37.4 °F 100% 29.84 in 1.8 mi Calm Calm - N/A   Overcast
9:55 PM 37.4 °F - 37.4 °F 100% 29.84 in 1.8 mi Calm Calm - N/A   Overcast
10:15 PM 37.4 °F - 37.4 °F 100% 29.84 in 1.0 mi Calm Calm - N/A   Overcast
10:35 PM 37.4 °F - 37.4 °F 100% 29.84 in 1.0 mi Calm Calm - N/A   Overcast
10:55 PM 37.4 °F - 37.4 °F 100% 29.84 in 1.2 mi Calm Calm - N/A   Overcast
11:15 PM 37.4 °F - 35.6 °F 93% 29.84 in 0.8 mi Calm Calm - N/A   Overcast
11:35 PM 37.4 °F - 35.6 °F 93% 29.84 in 0.8 mi Calm Calm - N/A   Overcast
11:55 PM 37.4 °F - 37.4 °F 100% 29.84 in 1.0 mi Calm Calm - N/A   Overcast